Location: Newark
(35.6799°N, 139.7636°E)
Time: 20:38:35
(UTC+00:00)

Explorer 7 - Pass Details

Date: 07 December 2019
Orbit: 485 x 679 km, 50.3° (Epoch: 24 January)

Event Time Altitude Azimuth Distance (km) Brightness Sun altitude
Rises 13:19:01 0° 314° (NW) 2,994 - -69.4°
Reaches altitude 10° 13:21:33 10° 322° (NW) 2,057 - -69.8°
Maximum altitude 13:25:59 38° 31° (NNE) 956 - -70.5°
Drops below altitude 10° 13:30:11 10° 100° (E) 1,945 - -71.2°
Sets 13:32:32 0° 108° (ESE) 2,810 - -71.6°
